Weather History for Cortez, CO

Change the Weather History Date:

Thursday, November 22, 2012

  Actual Average Record
Temperature  
Mean Temperature 40 °F 34 °F  
Max Temperature 59 °F 49 °F 61 °F (2006)
Min Temperature 21 °F 20 °F 8 °F (2007)
Degree Days  
Heating Degree Days 25 31  
Month to date heating degree days 528 585  
Since 1 July heating degree days 1084 1267  
Cooling Degree Days 0 0  
Month to date cooling degree days 0 0  
Year to date cooling degree days 746 426  
Moisture  
Dew Point 18 °F    
Average Humidity 49    
Maximum Humidity 77    
Minimum Humidity 21    
Precipitation  
Precipitation 0.00 in 0.05 in 0.35 in (2013)
Month to date precipitation 0.46 1.00  
Year to date precipitation 6.58 12.42  
Sea Level Pressure  
Sea Level Pressure 30.24 in    
Wind  
Wind Speed 5 mph (East)    
Max Wind Speed 15 mph    
Max Gust Speed 21 mph    
Visibility 10 miles    
Events      
T = Trace of Precipitation, MM = Missing Value Source: NWS Daily Summary

Daily Weather History Graph

Daily Weather History Graph

Search for Another Location

Airport:

Trip Planner

Search our weather history database for the weather conditions in past years. The results will help you decide how hot, cold, wet, or windy it might be!

Date:

Astronomy

Nov. 22, 2012 Rise Set
Actual Time 7:01 AM MST 4:59 PM MST
Civil Twilight 6:33 AM MST 5:28 PM MST
Nautical Twilight 6:01 AM MST 5:59 PM MST
Astronomical Twilight 5:30 AM MST 6:31 PM MST
Moon 1:41 PM MST (11/22) 1:31 AM MST (11/22)
Length of Visible Light 10h 54m
Length of Day
9h 58m
Waxing Gibbous, 72% of the Moon is Illuminated
Nov 22
Waxing Gibbous
Nov 28
Full
Dec 6
Last Quarter
Dec 13
New
Dec 19
First Quarter

Hourly Weather History & Observations

Time (MST) Temp. Windchill Dew Point Humidity Pressure Visibility Wind Dir Wind Speed Gust Speed Precip Events Conditions
12:53 AM 21.9 °F - 14.0 °F 72% 30.12 in 10.0 mi Calm Calm - N/A   Clear
1:53 AM 21.9 °F - 14.0 °F 72% 30.12 in 10.0 mi Calm Calm - N/A   Clear
2:53 AM 23.0 °F 15.8 °F 15.1 °F 72% 30.12 in 10.0 mi East 5.8 mph - N/A   Clear
3:53 AM 21.9 °F 15.7 °F 15.1 °F 75% 30.13 in 10.0 mi ENE 4.6 mph - N/A   Clear
4:53 AM 21.9 °F 14.5 °F 15.1 °F 75% 30.17 in 10.0 mi East 5.8 mph - N/A   Clear
5:53 AM 21.9 °F 14.5 °F 15.1 °F 75% 30.24 in 10.0 mi East 5.8 mph - N/A   Clear
6:53 AM 21.0 °F - 15.1 °F 78% 30.27 in 10.0 mi Calm Calm - N/A   Clear
7:53 AM 27.0 °F - 17.1 °F 66% 30.27 in 10.0 mi Calm Calm - N/A   Clear
8:53 AM 39.0 °F 35.7 °F 21.0 °F 49% 30.26 in 10.0 mi East 4.6 mph - N/A   Clear
9:53 AM 46.9 °F - 21.0 °F 36% 30.25 in 10.0 mi Calm Calm - N/A   Clear
10:53 AM 53.1 °F - 19.0 °F 26% 30.22 in 10.0 mi Calm Calm - N/A   Clear
11:53 AM 57.0 °F - 19.9 °F 24% 30.19 in 10.0 mi WNW 9.2 mph - N/A   Clear
12:53 PM 57.9 °F - 19.9 °F 23% 30.19 in 10.0 mi SSW 12.7 mph - N/A   Clear
1:53 PM 59.0 °F - 19.9 °F 22% 30.17 in 10.0 mi SSW 11.5 mph - N/A   Clear
2:53 PM 59.0 °F - 19.9 °F 22% 30.18 in 10.0 mi WSW 6.9 mph - N/A   Clear
3:53 PM 55.9 °F - 19.9 °F 25% 30.21 in 10.0 mi West 12.7 mph 20.7 mph N/A   Clear
4:53 PM 51.1 °F - 19.9 °F 29% 30.24 in 10.0 mi West 6.9 mph - N/A   Clear
5:53 PM 44.1 °F 41.5 °F 19.9 °F 38% 30.30 in 10.0 mi SE 4.6 mph - N/A   Clear
6:53 PM 37.9 °F - 19.9 °F 48% 30.35 in 10.0 mi Calm Calm - N/A   Clear
7:53 PM 39.9 °F 36.7 °F 19.9 °F 45% 30.34 in 10.0 mi East 4.6 mph - N/A   Clear
8:53 PM 30.0 °F 23.2 °F 18.0 °F 61% 30.35 in 10.0 mi ENE 6.9 mph - N/A   Clear
9:53 PM 28.0 °F 18.6 °F 17.1 °F 63% 30.34 in 10.0 mi ENE 10.4 mph - N/A   Clear
10:53 PM 27.0 °F 20.5 °F 16.0 °F 63% 30.34 in 10.0 mi ENE 5.8 mph - N/A   Clear
11:53 PM 26.1 °F 18.4 °F 16.0 °F 66% 30.33 in 10.0 mi NE 6.9 mph - N/A   Clear